Content
SEND FEEDBACK

Daily
Averages
Monthly
Summary
United States of America

PACIFIC GROVE, CALIFORNIA


Home > North America > United States > California
Elevation: 331 feet     Latitude: 36 36N     Longitude: 121 55W

WEATHER
 
SELECT A DAY
Number of Records: 192,004;   Date Range: 7/1/96 - 7/29/14
 
SHARE

PRINT THIS DATA

[ ← Previous Day ]
WEATHER ALMANAC - SEPTEMBER 18, 2013
[ Next Day → ]
[ °C ]   °F
Weather ElementAverageHighLow
Temperature58 °F68 °F (3:54 pm)51.1 °F (4:54 am)
Dewpoint50.8 °F54 °F (10:54 am)46.4 °F (4:38 am)
Humidity78.3 %94 % (10:03 am)55 % (3:54 pm)
Barometer29.92 in29.97 in (9:54 am)29.87 in (4:10 am)
Wind Speed3.8 mph10.4 mph (1:54 pm)
Weather ElementAverage
Visibility9 mi
Wind DirectionSE (136.5 °)

Weather ElementTotal
Precipitation---
Heating Degree Days5.5 (Base 65)
Growing Degree Days9.6 (Base 50)
Averaged from 34 records on September 18, 2013
WEATHER CONDITIONS BREAKOUT
WIND DIRECTION BREAKOUT
WEATHER BY HOUR - SEPTEMBER 18, 2013
[ °C ]   °F
Local TimeTemperatureDewpointHumidityBarometerVisibilityWind DirectionWind SpeedGust SpeedPrecipitationEventsConditions
1:54 AM55.9 °F52.0 °F87 %29.94 in10.0 miCalmClear
2:54 AM55.0 °F51.1 °F86 %29.92 in10.0 miCalmClear
3:54 AM54.0 °F50.0 °F86 %29.91 in10.0 miCalmClear
4:02 AM51.8 °F48.2 °F88 %29.88 in10.0 miCalmScattered Clouds
4:10 AM51.8 °F48.2 °F88 %29.87 in10.0 miCalmMostly Cloudy
4:38 AM51.8 °F46.4 °F82 %29.88 in10.0 miEast (80°)3.5 mphScattered Clouds
4:46 AM51.8 °F46.4 °F82 %29.88 in10.0 miEast (80°)3.5 mphMostly Cloudy
4:54 AM51.1 °F48.0 °F89 %29.91 in10.0 miCalmMostly Cloudy
5:10 AM51.8 °F48.2 °F88 %29.88 in10.0 miCalmMostly Cloudy
5:23 AM51.8 °F46.4 °F82 %29.87 in10.0 miEast (90°)5.8 mphScattered Clouds
5:54 AM51.1 °F48.0 °F89 %29.92 in10.0 miEast (100°)5.8 mphClear
6:54 AM52.0 °F48.9 °F89 %29.92 in10.0 miEast (80°)3.5 mphClear
7:54 AM55.9 °F51.1 °F84 %29.93 in10.0 miCalmClear
8:54 AM60.1 °F53.1 °F78 %29.93 in10.0 miCalmClear
9:46 AM57.2 °F53.6 °F88 %29.93 in8.0 miWNW (290°)9.2 mphPartly Cloudy
9:54 AM57.9 °F53.1 °F84 %29.97 in8.0 miNW (310°)5.8 mphClear
10:03 AM55.4 °F53.6 °F94 %29.93 in2.0 miWNW (300°)6.9 mphScattered Clouds
10:06 AM55.4 °F53.6 °F94 %29.93 in1.5 miWNW (290°)5.8 mphMostly Cloudy
10:12 AM57.2 °F53.6 °F88 %29.93 in2.0 miNW (310°)5.8 mphMostly Cloudy
10:18 AM57.2 °F53.6 °F88 %29.93 in7.0 miCalmScattered Clouds
10:54 AM62.1 °F54.0 °F75 %29.96 in10.0 miCalmClear
11:54 AM66.0 °F53.1 °F63 %29.94 in10.0 miWest (270°)4.6 mphClear
12:54 PM66.0 °F54.0 °F65 %29.94 in10.0 miNW (320°)6.9 mphClear
1:54 PM66.9 °F52.0 °F59 %29.93 in10.0 miWNW (290°)10.4 mphClear
2:54 PM64.9 °F53.1 °F65 %29.92 in10.0 miWest (280°)6.9 mphClear
3:54 PM68.0 °F51.1 °F55 %29.91 in10.0 miWNW (300°)6.9 mphClear
4:54 PM66.9 °F51.1 °F57 %29.91 in10.0 miWSW (250°)9.2 mphClear
5:54 PM64.9 °F50.0 °F58 %29.91 in10.0 miWest (270°)4.6 mphClear
6:54 PM64.9 °F48.9 °F56 %29.91 in10.0 miWSW (250°)4.6 mphClear
7:54 PM61.0 °F51.1 °F70 %29.92 in10.0 miSW (220°)8.1 mphClear
8:54 PM60.1 °F51.1 °F72 %29.93 in10.0 miSSW (200°)6.9 mphClear
9:54 PM59.0 °F50.0 °F72 %29.92 in10.0 miCalmClear
10:54 PM57.9 °F51.1 °F78 %29.91 in10.0 miCalmClear
11:54 PM55.9 °F51.1 °F84 %29.91 in9.0 miENE (60°)3.5 mphClear
Hourly data recorded from KMRY, located miles away from Pacific Grove, California







STORIES FROM OUR PARTNERS